Location: Grand Lay
(47.3253°N, 0.9468°E)
Time: 19:58:52
(UTC+00:00)

Gbstr 26 Del rocket - Pass Details

Date: 19 April 2026
Orbit: 490 x 1216 km, 51.8° (Epoch: 13 May)

Event Time Altitude Azimuth Distance (km) Brightness Sun altitude
Exits shadow 03:54:56 - 294° (WNW) 2,233 5.6 -11.0°
Reaches altitude 10° 03:56:15 10° 292° (WNW) 1,688 4.9 -10.8°
Maximum altitude 03:59:56 63° 211° (SSW) 553 2.6 -10.3°
Drops below altitude 10° 04:03:43 10° 130° (SE) 1,732 5.7 -9.7°
Sets 04:05:59 0° 127° (SE) 2,674 6.7 -9.4°
